| time (UTC) | temp C | wind direction | speed KPH | gust KPH | rain 1hr cm | rain 24hr cm | rain mn cm | humidity % | barometer mb |
| 20260508084516 | 13 | 34 | 0.0 | 9.7 | 0.00 | 0.00 | 0.00 | 32 | 1024.3 |
| 20260508083015 | 12 | 5 | 0.0 | 3.2 | 0.00 | 0.00 | 0.00 | 33 | 1024.4 |
| 20260508081514 | 12 | 25 | 0.0 | 4.8 | 0.00 | 0.00 | 0.00 | 33 | 1024.3 |
| 20260508080014 | 12 | 32 | 0.0 | 3.2 | 0.00 | 0.00 | 0.00 | 35 | 1024.2 |
| 20260508074511 | 12 | 32 | 1.6 | 6.4 | 0.00 | 0.00 | 0.00 | 34 | 1024.2 |
| 20260508073007 | 12 | 32 | 1.6 | 6.4 | 0.00 | 0.00 | 0.00 | 35 | 1024.1 |
| 20260508071506 | 11 | 5 | 0.0 | 4.8 | 0.00 | 0.00 | 0.00 | 37 | 1024.1 |
| 20260508070058 | 11 | 5 | 0.0 | 4.8 | 0.00 | 0.00 | 0.00 | 39 | 1023.9 |
| 20260508064556 | 10 | 355 | 0.0 | 3.2 | 0.00 | 0.00 | 0.00 | 42 | 1023.8 |
| 20260508063053 | 10 | 355 | 0.0 | 0.0 | 0.00 | 0.00 | 0.00 | 42 | 1023.7 |
| 20260508061549 | 9 | 355 | 0.0 | 0.0 | 0.00 | 0.00 | 0.00 | 45 | 1023.5 |
| 20260508060046 | 8 | 355 | 0.0 | 0.0 | 0.00 | 0.00 | 0.00 | 46 | 1023.4 |
| 20260508054542 | 7 | 335 | 0.0 | 0.0 | 0.00 | 0.00 | 0.00 | 51 | 1023.3 |
| 20260508053037 | 6 | 335 | 0.0 | 0.0 | 0.00 | 0.00 | 0.00 | 60 | 1023.2 |
| 20260508051532 | 5 | 335 | 0.0 | 0.0 | 0.00 | 0.00 | 0.00 | 71 | 1023.1 |
| 20260508050031 | 3 | 335 | 0.0 | 0.0 | 0.00 | 0.00 | 0.00 | 77 | 1023.0 |
| 20260508044528 | 2 | 335 | 0.0 | 0.0 | 0.00 | 0.00 | 0.00 | 80 | 1022.9 |
| 20260508043027 | 0 | 335 | 0.0 | 0.0 | 0.00 | 0.00 | 0.00 | 85 | 1022.9 |
| 20260508041525 | 0 | 335 | 0.0 | 0.0 | 0.00 | 0.00 | 0.00 | 87 | 1022.8 |
| 20260508040024 | -1 | 335 | 0.0 | 0.0 | 0.00 | 0.00 | 0.00 | 88 | 1022.6 |
| 20260508034522 | -2 | 335 | 0.0 | 0.0 | 0.00 | 0.00 | 0.00 | 91 | 1022.4 |
| 20260508033020 | -3 | 335 | 0.0 | 0.0 | 0.00 | 0.00 | 0.00 | 91 | 1022.2 |
| 20260508031518 | -3 | 335 | 0.0 | 0.0 | 0.00 | 0.00 | 0.00 | 91 | 1022.1 |
| 20260508030018 | -4 | 335 | 0.0 | 0.0 | 0.00 | 0.00 | 0.00 | 90 | 1022.0 |
| 20260508024516 | -4 | 335 | 0.0 | 0.0 | 0.00 | 0.00 | 0.00 | 89 | 1021.8 |
| 20260508023013 | -4 | 335 | 0.0 | 0.0 | 0.00 | 0.00 | 0.00 | 87 | 1021.7 |
| 20260508021521 | -3 | 335 | 0.0 | 0.0 | 0.00 | 0.00 | 0.00 | 87 | 1021.4 |
| 20260508020007 | -3 | 335 | 0.0 | 0.0 | 0.00 | 0.00 | 0.00 | 87 | 1021.2 |
| 20260508014505 | -3 | 335 | 0.0 | 0.0 | 0.00 | 0.00 | 0.00 | 87 | 1021.0 |
| 20260508013002 | -3 | 335 | 0.0 | 0.0 | 0.00 | 0.00 | 0.00 | 87 | 1020.8 |
| 20260508011600 | -3 | 335 | 0.0 | 0.0 | 0.00 | 0.00 | 0.00 | 86 | 1020.7 |
| 20260508010058 | -3 | 335 | 0.0 | 0.0 | 0.00 | 0.00 | 0.00 | 84 | 1020.5 |
| 20260508004609 | -2 | 335 | 0.0 | 0.0 | 0.00 | 0.00 | 0.00 | 83 | 1020.5 |
| 20260508003054 | -2 | 335 | 0.0 | 0.0 | 0.00 | 0.00 | 0.00 | 83 | 1020.2 |
| 20260508001550 | -2 | 335 | 0.0 | 0.0 | 0.00 | 0.00 | 0.00 | 81 | 1020.0 |
| 20260508000047 | -1 | 335 | 0.0 | 0.0 | 0.00 | 0.00 | 0.00 | 78 | 1019.7 |
| 20260507234543 | 0 | 335 | 0.0 | 0.0 | 0.00 | 0.00 | 0.00 | 75 | 1019.6 |
| 20260507233040 | 0 | 335 | 0.0 | 0.0 | 0.00 | 0.00 | 0.00 | 72 | 1019.5 |
| 20260507231533 | 1 | 335 | 0.0 | 0.0 | 0.00 | 0.00 | 0.00 | 70 | 1019.3 |
| 20260507230030 | 1 | 335 | 0.0 | 0.0 | 0.00 | 0.00 | 0.00 | 71 | 1019.2 |
| 20260507224534 | 2 | 335 | 0.0 | 0.0 | 0.00 | 0.00 | 0.00 | 69 | 1019.1 |
| 20260507223026 | 2 | 335 | 0.0 | 0.0 | 0.00 | 0.00 | 0.00 | 66 | 1018.9 |
| 20260507221523 | 2 | 335 | 0.0 | 0.0 | 0.00 | 0.00 | 0.00 | 67 | 1018.7 |
| 20260507220022 | 2 | 335 | 0.0 | 0.0 | 0.00 | 0.00 | 0.00 | 66 | 1018.6 |
| 20260507214521 | 2 | 335 | 0.0 | 0.0 | 0.00 | 0.00 | 0.00 | 63 | 1018.4 |
| 20260507213017 | 3 | 335 | 0.0 | 0.0 | 0.00 | 0.00 | 0.00 | 61 | 1018.2 |
| 20260507211514 | 3 | 335 | 0.0 | 0.0 | 0.00 | 0.00 | 0.00 | 61 | 1017.9 |
| 20260507210030 | 3 | 335 | 0.0 | 0.0 | 0.00 | 0.00 | 0.00 | 60 | 1017.7 |
| 20260507204509 | 5 | 335 | 0.0 | 0.0 | 0.00 | 0.00 | 0.00 | 56 | 1017.4 |
| 20260507203009 | 5 | 335 | 0.0 | 0.0 | 0.00 | 0.00 | 0.00 | 53 | 1017.3 |
| 20260507201509 | 6 | 335 | 0.0 | 0.0 | 0.00 | 0.00 | 0.00 | 52 | 1017.1 |
| 20260507200103 | 6 | 335 | 0.0 | 0.0 | 0.00 | 0.00 | 0.00 | 50 | 1016.9 |
| 20260507194503 | 7 | 335 | 0.0 | 0.0 | 0.00 | 0.00 | 0.00 | 48 | 1016.7 |
| 20260507193059 | 7 | 335 | 0.0 | 0.0 | 0.00 | 0.00 | 0.00 | 46 | 1016.5 |
| 20260507191557 | 7 | 335 | 0.0 | 0.0 | 0.00 | 0.00 | 0.00 | 44 | 1016.3 |
| 20260507190056 | 8 | 335 | 0.0 | 0.0 | 0.00 | 0.00 | 0.00 | 41 | 1016.1 |
| 20260507184604 | 8 | 335 | 0.0 | 0.0 | 0.00 | 0.00 | 0.00 | 39 | 1015.9 |
| 20260507183052 | 9 | 335 | 0.0 | 0.0 | 0.00 | 0.00 | 0.00 | 37 | 1015.8 |
| 20260507181551 | 10 | 335 | 0.0 | 1.6 | 0.00 | 0.00 | 0.00 | 35 | 1015.5 |
| 20260507180051 | 10 | 335 | 0.0 | 3.2 | 0.00 | 0.00 | 0.00 | 33 | 1015.4 |
| 20260507174550 | 11 | 325 | 0.0 | 1.6 | 0.00 | 0.00 | 0.00 | 31 | 1015.2 |
| 20260507173046 | 11 | 355 | 0.0 | 9.7 | 0.00 | 0.00 | 0.00 | 31 | 1015.0 |
| 20260507171549 | 12 | 324 | 0.0 | 4.8 | 0.00 | 0.00 | 0.00 | 27 | 1014.8 |
| 20260507170041 | 12 | 17 | 0.0 | 1.6 | 0.00 | 0.00 | 0.00 | 25 | 1014.6 |
| 20260507164541 | 12 | 11 | 0.0 | 8.0 | 0.00 | 0.00 | 0.00 | 24 | 1014.5 |
| 20260507163039 | 12 | 157 | 0.0 | 3.2 | 0.00 | 0.00 | 0.00 | 24 | 1014.4 |
| 20260507161545 | 13 | 329 | 4.8 | 9.7 | 0.00 | 0.00 | 0.00 | 24 | 1014.3 |
| 20260507160037 | 13 | 331 | 0.0 | 3.2 | 0.00 | 0.00 | 0.00 | 24 | 1014.2 |
| 20260507154537 | 13 | 334 | 0.0 | 8.0 | 0.00 | 0.00 | 0.00 | 23 | 1013.9 |
| 20260507153040 | 13 | 339 | 0.0 | 6.4 | 0.00 | 0.00 | 0.00 | 23 | 1013.7 |
| 20260507151533 | 13 | 355 | 0.0 | 8.0 | 0.00 | 0.00 | 0.00 | 24 | 1013.6 |
| 20260507150032 | 14 | 330 | 3.2 | 9.7 | 0.00 | 0.00 | 0.00 | 23 | 1013.5 |
| 20260507144534 | 14 | 323 | 0.0 | 16.1 | 0.00 | 0.00 | 0.00 | 24 | 1013.3 |
| 20260507143030 | 15 | 274 | 0.0 | 4.8 | 0.00 | 0.00 | 0.00 | 22 | 1013.0 |
| 20260507141529 | 15 | 322 | 0.0 | 6.4 | 0.00 | 0.00 | 0.00 | 22 | 1013.1 |
| 20260507140029 | 14 | 306 | 0.0 | 4.8 | 0.00 | 0.00 | 0.00 | 22 | 1013.0 |
| 20260507134531 | 15 | 5 | 0.0 | 1.6 | 0.00 | 0.00 | 0.00 | 21 | 1013.1 |
| 20260507133028 | 15 | 275 | 0.0 | 6.4 | 0.00 | 0.00 | 0.00 | 20 | 1013.1 |
| 20260507131526 | 15 | 5 | 0.0 | 4.8 | 0.00 | 0.00 | 0.00 | 20 | 1013.0 |
| 20260507130036 | 15 | 296 | 0.0 | 3.2 | 0.00 | 0.00 | 0.00 | 21 | 1013.1 |
| 20260507124528 | 15 | 268 | 0.0 | 4.8 | 0.00 | 0.00 | 0.00 | 20 | 1013.1 |
| 20260507123024 | 15 | 346 | 1.6 | 6.4 | 0.00 | 0.00 | 0.00 | 21 | 1013.0 |
| 20260507121520 | 14 | 360 | 0.0 | 1.6 | 0.00 | 0.00 | 0.00 | 20 | 1013.1 |
| 20260507120023 | 14 | 273 | 0.0 | 11.3 | 0.00 | 0.00 | 0.00 | 22 | 1013.2 |
| 20260507114518 | 14 | 5 | 0.0 | 6.4 | 0.00 | 0.00 | 0.00 | 21 | 1013.1 |
| 20260507113018 | 14 | 132 | 0.0 | 3.2 | 0.00 | 0.00 | 0.00 | 22 | 1013.1 |
| 20260507111517 | 13 | 313 | 0.0 | 4.8 | 0.00 | 0.00 | 0.00 | 21 | 1013.3 |
| 20260507110016 | 14 | 250 | 0.0 | 4.8 | 0.00 | 0.00 | 0.00 | 23 | 1013.2 |
| 20260507104516 | 14 | 30 | 1.6 | 6.4 | 0.00 | 0.00 | 0.00 | 20 | 1013.3 |
| 20260507103025 | 13 | 30 | 0.0 | 3.2 | 0.00 | 0.00 | 0.00 | 24 | 1013.2 |
| 20260507101512 | 13 | 30 | 0.0 | 4.8 | 0.00 | 0.00 | 0.00 | 23 | 1013.2 |
| 20260507100010 | 13 | 36 | 0.0 | 1.6 | 0.00 | 0.00 | 0.00 | 24 | 1013.2 |
| 20260507094511 | 13 | 53 | 0.0 | 4.8 | 0.00 | 0.00 | 0.00 | 25 | 1013.2 |
| 20260507093008 | 12 | 254 | 0.0 | 4.8 | 0.00 | 0.00 | 0.00 | 26 | 1013.2 |
| 20260507091507 | 12 | 248 | 0.0 | 3.2 | 0.00 | 0.00 | 0.00 | 26 | 1013.2 |
| 20260507090007 | 12 | 255 | 1.6 | 11.3 | 0.00 | 0.00 | 0.00 | 26 | 1013.4 |